CDT,Max TemperatureF,Mean TemperatureF,Min TemperatureF,Max Dew PointF,MeanDew PointF,Min DewpointF,Max Humidity, Mean Humidity, Min Humidity, Max Sea Level PressureIn, Mean Sea Level PressureIn, Min Sea Level PressureIn, Max VisibilityMiles, Mean VisibilityMiles, Min VisibilityMiles, Max Wind SpeedMPH, Mean Wind SpeedMPH, Max Gust SpeedMPH,PrecipitationIn, CloudCover, Events, WindDirDegrees
2012-10-1,62,58,55,59,57,55,100,97,88,29.80,29.68,29.56,10,6,1,21,8,37,0.44,7,,27
2012-10-2,59,56,53,55,53,50,100,91,72,29.96,29.82,29.69,10,7,2,14,7,,0.04,8,,307
2012-10-3,73,62,50,55,51,48,100,69,41,30.15,30.06,29.96,10,10,10,10,7,,0.00,1,,184
2012-10-4,78,66,55,61,57,54,100,73,47,30.27,30.20,30.15,10,10,5,13,6,,0.00,1,,195
2012-10-5,77,60,42,63,57,41,100,79,54,30.18,30.11,29.97,10,10,4,25,7,32,0.22,4,,238
2012-10-6,55,47,39,41,35,28,93,66,36,30.24,30.19,30.14,10,10,8,14,9,20,0.08,4,,9
2012-10-7,55,48,42,41,35,32,76,62,41,30.25,30.21,30.18,10,10,10,12,8,16,0.00,3,,353
2012-10-8,59,50,41,43,37,32,93,66,36,30.25,30.19,30.14,10,10,5,9,2,,0.00,3,,39
2012-10-9,64,50,37,46,41,36,100,69,42,30.17,30.09,30.00,10,9,5,12,4,18,0.00,1,,201
2012-10-10,59,50,41,50,38,28,81,57,31,30.27,30.18,30.02,10,10,10,17,8,24,0.00,3,,323
2012-10-11,59,48,37,46,38,32,93,65,44,30.31,30.26,30.19,10,10,10,8,3,,0.00,5,,178
2012-10-12,60,56,53,57,54,48,100,93,77,30.33,30.27,30.18,10,7,0,17,6,24,1.61,6,,71
2012-10-13,78,66,55,64,60,55,100,81,54,30.25,30.15,30.00,10,8,1,16,7,24,0.00,4,,173
2012-10-14,73,64,55,64,60,54,94,77,56,29.98,29.92,29.83,10,10,7,29,13,39,0.00,4,,217
2012-10-15,69,60,50,54,47,41,94,69,35,30.05,29.99,29.95,10,10,10,12,6,17,0.00,0,,283
2012-10-16,75,62,48,54,50,45,94,67,44,30.00,29.90,29.79,10,9,3,13,6,21,0.00,0,,184
2012-10-17,75,65,55,57,50,48,100,64,38,29.83,29.69,29.46,10,10,2,26,10,39,0.49,2,,185
2012-10-18,66,58,50,57,42,30,100,62,28,29.77,29.72,29.62,10,10,10,24,11,37,0.00,1,,243
2012-10-19,57,52,48,41,38,32,67,57,47,29.85,29.73,29.66,10,10,10,16,10,26,0.00,6,,252
2012-10-20,64,55,46,46,43,41,87,69,45,29.98,29.92,29.84,10,10,4,15,6,21,0.00,4,,234
2012-10-21,77,62,48,55,50,45,93,64,44,30.07,30.03,29.98,10,10,5,13,7,20,0.00,2,,177
2012-10-22,80,70,59,55,51,48,72,54,32,30.13,30.08,30.05,10,10,10,15,8,23,0.00,0,,195
2012-10-23,78,69,60,57,52,46,68,54,42,30.11,30.05,30.01,10,10,8,15,8,23,0.00,1,,199
2012-10-24,78,68,57,59,55,50,82,64,47,30.11,30.06,30.01,10,10,10,13,7,18,0.00,0,,189
2012-10-25,77,67,57,59,57,55,94,68,50,30.03,29.98,29.94,10,10,9,16,7,24,0.00,1,,181
2012-10-26,66,54,41,57,41,36,93,87,71,30.22,30.16,30.00,10,7,1,20,13,28,0.46,7,,6
2012-10-27,53,45,37,36,33,32,81,66,44,30.18,30.14,30.09,10,10,10,18,13,26,0.00,2,,6
2012-10-28,53,44,35,36,33,28,87,66,38,30.17,30.14,30.11,10,10,10,21,11,25,0.00,0,,355
2012-10-29,53,42,32,32,28,19,93,58,26,30.22,30.15,30.02,10,10,10,23,11,32,0.00,0,,343
2012-10-30,55,46,37,27,25,21,65,48,26,30.02,29.91,29.84,10,10,10,25,13,31,0.00,0,,312
2012-10-31,57,46,35,30,25,18,75,48,23,29.98,29.93,29.89,10,10,9,14,8,23,0.00,0,,300